Time,TemperatureF,DewpointF,PressureIn,WindDirection,WindDirectionDegrees,WindSpeedMPH,WindSpeedGustMPH,Humidity,HourlyPrecipIn,Conditions,Clouds,dailyrainin,SolarRadiationWatts/m^2,SoftwareType,DateUTC
2013-06-14 00:02:00,82.0,48.0,-100.00,South,172,6.0,13.0,31,0.00,,,0.00,1.000000,,2013-06-14 07:02:00,
2013-06-14 00:12:00,82.0,48.0,-100.00,South,172,6.0,13.0,31,0.00,,,0.00,1.000000,,2013-06-14 07:12:00,
2013-06-14 00:43:00,79.0,48.0,-100.00,WSW,242,3.0,6.0,34,0.00,,,0.00,1.000000,,2013-06-14 07:43:00,
2013-06-14 00:53:00,79.0,48.0,-100.00,WSW,242,3.0,6.0,34,0.00,,,0.00,1.000000,,2013-06-14 07:53:00,
2013-06-14 01:02:00,79.0,48.0,-100.00,WSW,242,3.0,6.0,34,0.00,,,0.00,1.000000,,2013-06-14 08:02:00,
2013-06-14 01:12:00,79.0,48.0,-100.00,WSW,242,3.0,6.0,34,0.00,,,0.00,1.000000,,2013-06-14 08:12:00,
2013-06-14 01:43:00,80.0,44.0,-100.00,South,185,5.0,8.0,28,0.00,,,0.00,1.000000,,2013-06-14 08:43:00,
2013-06-14 01:53:00,80.0,44.0,-100.00,South,185,5.0,8.0,28,0.00,,,0.00,1.000000,,2013-06-14 08:53:00,
2013-06-14 02:01:00,80.0,44.0,-100.00,South,185,5.0,8.0,28,0.00,,,0.00,1.000000,,2013-06-14 09:01:00,
2013-06-14 02:11:00,80.0,44.0,-100.00,South,185,5.0,8.0,28,0.00,,,0.00,1.000000,,2013-06-14 09:11:00,
2013-06-14 02:43:00,79.0,47.0,-100.00,SSE,154,8.0,12.0,32,0.00,,,0.00,1.000000,,2013-06-14 09:43:00,
2013-06-14 02:53:00,79.0,47.0,-100.00,SSE,154,8.0,12.0,32,0.00,,,0.00,1.000000,,2013-06-14 09:53:00,
2013-06-14 03:01:00,79.0,47.0,-100.00,SSE,154,8.0,12.0,32,0.00,,,0.00,1.000000,,2013-06-14 10:01:00,
2013-06-14 03:11:00,79.0,47.0,-100.00,SSE,154,8.0,12.0,32,0.00,,,0.00,1.000000,,2013-06-14 10:11:00,
2013-06-14 03:44:00,78.0,50.0,-100.00,SSE,154,10.0,13.0,37,0.00,,,0.00,1.000000,,2013-06-14 10:44:00,
2013-06-14 03:52:00,78.0,50.0,-100.00,SSE,154,10.0,13.0,37,0.00,,,0.00,1.000000,,2013-06-14 10:52:00,
2013-06-14 04:02:00,78.0,50.0,-100.00,SSE,154,10.0,13.0,37,0.00,,,0.00,1.000000,,2013-06-14 11:02:00,
2013-06-14 04:11:00,78.0,50.0,-100.00,SSE,154,10.0,13.0,37,0.00,,,0.00,1.000000,,2013-06-14 11:11:00,
2013-06-14 04:43:00,78.0,47.0,-100.00,SSE,151,8.0,14.0,33,0.00,,,0.00,1.000000,,2013-06-14 11:43:00,
2013-06-14 04:52:00,78.0,47.0,-100.00,SSE,151,8.0,14.0,33,0.00,,,0.00,1.000000,,2013-06-14 11:52:00,
2013-06-14 05:01:00,78.0,47.0,-100.00,SSE,151,8.0,14.0,33,0.00,,,0.00,1.000000,,2013-06-14 12:01:00,
2013-06-14 05:11:00,78.0,47.0,-100.00,SSE,151,8.0,14.0,33,0.00,,,0.00,1.000000,,2013-06-14 12:11:00,
2013-06-14 05:43:00,78.0,46.0,-100.00,SE,141,9.0,12.0,32,0.00,,,0.00,1.000000,,2013-06-14 12:43:00,
2013-06-14 05:52:00,78.0,46.0,-100.00,SE,141,9.0,12.0,32,0.00,,,0.00,1.000000,,2013-06-14 12:52:00,
2013-06-14 06:02:00,78.0,46.0,-100.00,SE,141,9.0,12.0,32,0.00,,,0.00,1.000000,,2013-06-14 13:02:00,
2013-06-14 06:11:00,78.0,46.0,-100.00,SE,141,9.0,12.0,32,0.00,,,0.00,1.000000,,2013-06-14 13:11:00,
2013-06-14 06:53:00,78.0,51.0,-100.00,SE,140,7.0,12.0,39,0.00,,,0.00,27.000000,,2013-06-14 13:53:00,
2013-06-14 07:02:00,78.0,51.0,-100.00,SE,140,7.0,12.0,39,0.00,,,0.00,27.000000,,2013-06-14 14:02:00,
2013-06-14 07:11:00,78.0,51.0,-100.00,SE,140,7.0,12.0,39,0.00,,,0.00,27.000000,,2013-06-14 14:11:00,
2013-06-14 07:43:00,81.0,57.0,-100.00,SSE,148,5.0,9.0,44,0.00,,,0.00,166.000000,,2013-06-14 14:43:00,
2013-06-14 07:52:00,81.0,57.0,-100.00,SSE,148,5.0,9.0,44,0.00,,,0.00,166.000000,,2013-06-14 14:52:00,
2013-06-14 08:01:00,81.0,57.0,-100.00,SSE,148,5.0,9.0,44,0.00,,,0.00,166.000000,,2013-06-14 15:01:00,
2013-06-14 08:11:00,81.0,57.0,-100.00,SSE,148,5.0,9.0,44,0.00,,,0.00,166.000000,,2013-06-14 15:11:00,
2013-06-14 08:44:00,86.0,57.0,-100.00,SSE,150,13.0,19.0,37,0.00,,,0.00,374.000000,,2013-06-14 15:44:00,
2013-06-14 08:53:00,86.0,57.0,-100.00,SSE,150,13.0,19.0,37,0.00,,,0.00,374.000000,,2013-06-14 15:53:00,
2013-06-14 09:01:00,86.0,57.0,-100.00,SSE,150,13.0,19.0,37,0.00,,,0.00,374.000000,,2013-06-14 16:01:00,
2013-06-14 09:11:00,86.0,57.0,-100.00,SSE,150,13.0,19.0,37,0.00,,,0.00,374.000000,,2013-06-14 16:11:00,
2013-06-14 09:43:00,90.0,54.0,-100.00,SSE,157,13.0,20.0,30,0.00,,,0.00,561.000000,,2013-06-14 16:43:00,
2013-06-14 09:53:00,90.0,54.0,-100.00,SSE,157,13.0,20.0,30,0.00,,,0.00,561.000000,,2013-06-14 16:53:00,
2013-06-14 10:02:00,90.0,54.0,-100.00,SSE,157,13.0,20.0,30,0.00,,,0.00,561.000000,,2013-06-14 17:02:00,
2013-06-14 10:11:00,90.0,54.0,-100.00,SSE,157,13.0,20.0,30,0.00,,,0.00,561.000000,,2013-06-14 17:11:00,
2013-06-14 10:43:00,93.0,56.0,-100.00,SSE,155,12.0,20.0,29,0.00,,,0.00,768.000000,,2013-06-14 17:43:00,
2013-06-14 10:53:00,93.0,56.0,-100.00,SSE,155,12.0,20.0,29,0.00,,,0.00,768.000000,,2013-06-14 17:53:00,
2013-06-14 11:02:00,93.0,56.0,-100.00,SSE,155,12.0,20.0,29,0.00,,,0.00,768.000000,,2013-06-14 18:02:00,
2013-06-14 11:11:00,93.0,56.0,-100.00,SSE,155,12.0,20.0,29,0.00,,,0.00,768.000000,,2013-06-14 18:11:00,
2013-06-14 11:43:00,95.0,54.0,-100.00,South,171,9.0,16.0,25,0.00,,,0.00,910.000000,,2013-06-14 18:43:00,
2013-06-14 11:52:00,95.0,54.0,-100.00,South,171,9.0,16.0,25,0.00,,,0.00,910.000000,,2013-06-14 18:52:00,
2013-06-14 12:01:00,95.0,54.0,-100.00,South,171,9.0,16.0,25,0.00,,,0.00,910.000000,,2013-06-14 19:01:00,
2013-06-14 12:11:00,95.0,54.0,-100.00,South,171,9.0,16.0,25,0.00,,,0.00,910.000000,,2013-06-14 19:11:00,
2013-06-14 12:43:00,98.0,50.0,-100.00,South,181,10.0,16.0,20,0.00,,,0.00,1000.000000,,2013-06-14 19:43:00,
2013-06-14 12:53:00,98.0,50.0,-100.00,South,181,10.0,16.0,20,0.00,,,0.00,1000.000000,,2013-06-14 19:53:00,
2013-06-14 13:01:00,98.0,50.0,-100.00,South,181,10.0,16.0,20,0.00,,,0.00,1000.000000,,2013-06-14 20:01:00,
2013-06-14 13:11:00,98.0,50.0,-100.00,South,181,10.0,16.0,20,0.00,,,0.00,1000.000000,,2013-06-14 20:11:00,
2013-06-14 13:43:00,101.0,50.0,-100.00,South,173,9.0,16.0,18,0.00,,,0.00,1028.000000,,2013-06-14 20:43:00,
2013-06-14 13:53:00,101.0,50.0,-100.00,South,173,9.0,16.0,18,0.00,,,0.00,1028.000000,,2013-06-14 20:53:00,
2013-06-14 14:02:00,101.0,50.0,-100.00,South,173,9.0,16.0,18,0.00,,,0.00,1028.000000,,2013-06-14 21:02:00,
2013-06-14 14:11:00,101.0,50.0,-100.00,South,173,9.0,16.0,18,0.00,,,0.00,1028.000000,,2013-06-14 21:11:00,
2013-06-14 14:43:00,102.0,46.0,-100.00,South,171,11.0,17.0,15,0.00,,,0.00,1001.000000,,2013-06-14 21:43:00,
2013-06-14 14:52:00,102.0,46.0,-100.00,South,171,11.0,17.0,15,0.00,,,0.00,1001.000000,,2013-06-14 21:52:00,
2013-06-14 15:01:00,102.0,46.0,-100.00,South,171,11.0,17.0,15,0.00,,,0.00,1001.000000,,2013-06-14 22:01:00,
2013-06-14 15:11:00,102.0,46.0,-100.00,South,171,11.0,17.0,15,0.00,,,0.00,1001.000000,,2013-06-14 22:11:00,
2013-06-14 15:43:00,103.0,45.0,-100.00,South,182,10.0,19.0,14,0.00,,,0.00,910.000000,,2013-06-14 22:43:00,
2013-06-14 15:53:00,103.0,45.0,-100.00,South,182,10.0,19.0,14,0.00,,,0.00,910.000000,,2013-06-14 22:53:00,
2013-06-14 16:01:00,103.0,45.0,-100.00,South,182,10.0,19.0,14,0.00,,,0.00,910.000000,,2013-06-14 23:01:00,
2013-06-14 16:11:00,103.0,45.0,-100.00,South,182,10.0,19.0,14,0.00,,,0.00,910.000000,,2013-06-14 23:11:00,
2013-06-14 16:43:00,104.0,41.0,-100.00,SSE,164,10.0,17.0,12,0.00,,,0.00,752.000000,,2013-06-14 23:43:00,
2013-06-14 16:52:00,104.0,41.0,-100.00,SSE,164,10.0,17.0,12,0.00,,,0.00,752.000000,,2013-06-14 23:52:00,
2013-06-14 17:01:00,104.0,41.0,-100.00,SSE,164,10.0,17.0,12,0.00,,,0.00,752.000000,,2013-06-15 00:01:00,
2013-06-14 17:11:00,104.0,41.0,-100.00,SSE,164,10.0,17.0,12,0.00,,,0.00,752.000000,,2013-06-15 00:11:00,
2013-06-14 18:43:00,101.0,37.0,-100.00,South,173,11.0,15.0,11,-99.99,,,0.00,351.000000,,2013-06-15 01:43:00,
2013-06-14 18:54:00,101.0,37.0,-100.00,South,173,11.0,15.0,11,-99.99,,,0.00,351.000000,,2013-06-15 01:54:00,
2013-06-14 19:02:00,101.0,37.0,-100.00,South,173,11.0,15.0,11,-99.99,,,0.00,351.000000,,2013-06-15 02:02:00,
2013-06-14 19:11:00,101.0,37.0,-100.00,South,173,11.0,15.0,11,-99.99,,,0.00,351.000000,,2013-06-15 02:11:00,
2013-06-14 19:43:00,97.0,36.0,-100.00,SSE,158,11.0,16.0,12,0.00,,,0.00,156.000000,,2013-06-15 02:43:00,
2013-06-14 19:53:00,97.0,36.0,-100.00,SSE,158,11.0,16.0,12,0.00,,,0.00,156.000000,,2013-06-15 02:53:00,
2013-06-14 20:01:00,97.0,36.0,-100.00,SSE,158,11.0,16.0,12,0.00,,,0.00,156.000000,,2013-06-15 03:01:00,
2013-06-14 20:11:00,97.0,36.0,-100.00,SSE,158,11.0,16.0,12,0.00,,,0.00,156.000000,,2013-06-15 03:11:00,
2013-06-14 20:44:00,92.0,36.0,-100.00,SSE,151,8.0,12.0,14,0.00,,,0.00,15.000000,,2013-06-15 03:44:00,
2013-06-14 20:53:00,92.0,36.0,-100.00,SSE,151,8.0,12.0,14,0.00,,,0.00,15.000000,,2013-06-15 03:53:00,
2013-06-14 21:01:00,92.0,36.0,-100.00,SSE,151,8.0,12.0,14,0.00,,,0.00,15.000000,,2013-06-15 04:01:00,
2013-06-14 21:11:00,92.0,36.0,-100.00,SSE,151,8.0,12.0,14,0.00,,,0.00,15.000000,,2013-06-15 04:11:00,
2013-06-14 21:43:00,87.0,40.0,-100.00,SE,135,6.0,12.0,19,0.00,,,0.00,1.000000,,2013-06-15 04:43:00,
2013-06-14 21:54:00,87.0,40.0,-100.00,SE,135,6.0,12.0,19,0.00,,,0.00,1.000000,,2013-06-15 04:54:00,
2013-06-14 22:02:00,87.0,40.0,-100.00,SE,135,6.0,12.0,19,0.00,,,0.00,1.000000,,2013-06-15 05:02:00,
2013-06-14 22:12:00,87.0,40.0,-100.00,SE,135,6.0,12.0,19,0.00,,,0.00,1.000000,,2013-06-15 05:12:00,
2013-06-14 22:43:00,85.0,44.0,-100.00,SE,142,9.0,14.0,24,0.00,,,0.00,1.000000,,2013-06-15 05:43:00,
2013-06-14 22:52:00,85.0,44.0,-100.00,SE,142,9.0,14.0,24,0.00,,,0.00,1.000000,,2013-06-15 05:52:00,
2013-06-14 23:02:00,85.0,44.0,-100.00,SE,142,9.0,14.0,24,0.00,,,0.00,1.000000,,2013-06-15 06:02:00,
2013-06-14 23:12:00,85.0,44.0,-100.00,SE,142,9.0,14.0,24,0.00,,,0.00,1.000000,,2013-06-15 06:12:00,
2013-06-14 23:53:00,83.0,50.0,-100.00,SSE,147,10.0,17.0,32,0.00,,,0.00,1.000000,,2013-06-15 06:53:00,